QPF
0.02 0.04 0.04 0.03 0.03 0.03 0.03 0.03 0.03 0.02 0.01 0.01 0.02 0.05 0.08 0.07 0.07 0.10 0.16 0.08 0.10 0.13 0.05 0.01 0.00 0.00 0.00 0.01 0.03 0.01 0.06 0.03 0.03 0.04 0.02 0.00 0.00 0.00 0.00 0.00 0.00 0.02 0.02 0.01 0.01 0.01 0.00 0.00 0.02 0.04 0.01 0.00 0.00 0.00
0.06 0.02 0.03 0.03 0.02 0.02 0.02 0.01 0.02 0.02 0.02 0.02 0.03 0.02 0.05 0.09 0.10 0.16 0.24 0.12 0.08 0.11 0.11 0.04 0.01 0.00 0.00 0.00 0.01 0.04 0.01 0.00 0.00 0.00 0.00 0.00 0.00 0.00 0.00 0.00 0.00 0.00 0.01 0.00 0.00 0.00 0.00 0.00 0.00 0.00 0.00 0.00 0.00 0.00
0.03 0.02 0.04 0.02 0.00 0.00 0.00 0.01 0.01 0.04 0.04 0.03 0.04 0.04 0.04 0.07 0.16 0.26 0.24 0.11 0.18 0.24 0.15 0.08 0.01 0.00 0.00 0.00 0.00 0.01 0.00 0.00 0.00 0.00 0.00 0.00 0.00 0.00 0.00 0.00 0.00 0.00 0.00 0.00 0.00 0.00 0.00 0.00 0.00 0.00 0.00 0.00 0.00 0.00
0.01 0.02 0.02 0.00 0.01 0.01 0.01 0.00 0.00 0.02 0.06 0.06 0.06 0.07 0.04 0.07 0.17 0.32 0.20 0.10 0.09 0.12 0.09 0.04 0.00 0.00 0.00 0.00 0.00 0.00 0.00 0.02 0.00 0.01 0.00 0.00 0.00 0.00 0.00 0.00 0.00 0.00 0.00 0.00 0.00 0.00 0.00 0.00 0.00 0.00 0.00 0.00 0.00 0.00
0.01 0.01 0.00 0.01 0.01 0.02 0.02 0.02 0.01 0.00 0.03 0.10 0.11 0.10 0.04 0.09 0.23 0.22 0.14 0.08 0.03 0.04 0.06 0.01 0.00 0.00 0.00 0.00 0.00 0.00 0.00 0.01 0.01 0.01 0.02 0.00 0.00 0.00 0.00 0.00 0.00 0.00 0.00 0.00 0.00 0.00 0.00 0.00 0.00 0.00 0.00 0.00 0.00 0.00
0.00 0.00 0.00 0.00 0.00 0.00 0.00 0.00 0.01 0.00 0.02 0.09 0.15 0.13 0.06 0.10 0.15 0.13 0.19 0.12 0.03 0.02 0.02 0.00 0.00 0.00 0.00 0.00 0.00 0.00 0.00 0.00 0.02 0.01 0.00 0.00 0.00 0.01 0.00 0.00 0.00 0.00 0.00 0.00 0.00 0.00 0.00 0.00 0.00 0.00 0.00 0.00 0.00 0.00
0.00 0.01 0.01 0.01 0.01 0.00 0.00 0.00 0.00 0.01 0.03 0.08 0.14 0.10 0.08 0.06 0.03 0.03 0.03 0.02 0.00 0.00 0.00 0.00 0.00 0.00 0.00 0.00 0.05 0.08 0.05 0.04 0.06 0.06 0.00 0.00 0.00 0.00 0.00 0.00 0.00 0.00 0.00 0.00 0.00 0.00 0.00 0.00 0.00 0.00 0.00 0.00 0.00 0.00
0.00 0.01 0.02 0.02 0.01 0.02 0.02 0.03 0.03 0.03 0.05 0.09 0.11 0.09 0.09 0.06 0.05 0.02 0.00 0.00 0.00 0.01 0.01 0.00 0.02 0.08 0.02 0.03 0.14 0.20 0.26 0.21 0.21 0.17 0.05 0.00 0.00 0.00 0.00 0.00 0.00 0.00 0.00 0.00 0.00 0.00 0.00 0.00 0.00 0.00 0.00 0.00 0.00 0.02
0.00 0.01 0.02 0.06 0.04 0.04 0.07 0.08 0.06 0.07 0.09 0.11 0.16 0.24 0.29 0.16 0.11 0.04 0.03 0.01 0.00 0.00 0.00 0.00 0.05 0.33 0.08 0.06 0.07 0.18 0.15 0.14 0.11 0.07 0.05 0.01 0.00 0.00 0.01 0.00 0.00 0.00 0.00 0.00 0.00 0.00 0.00 0.00 0.01 0.01 0.01 0.01 0.00 0.00
0.00 0.00 0.01 0.03 0.09 0.07 0.07 0.14 0.18 0.21 0.23 0.21 0.22 0.31 0.29 0.15 0.04 0.05 0.06 0.03 0.02 0.01 0.01 0.01 0.05 0.23 0.12 0.04 0.06 0.06 0.01 0.02 0.03 0.01 0.00 0.00 0.01 0.02 0.01 0.00 0.00 0.00 0.00 0.00 0.00 0.00 0.00 0.02 0.03 0.02 0.03 0.04 0.01 0.00
0.00 0.00 0.01 0.01 0.01 0.02 0.03 0.03 0.08 0.16 0.10 0.10 0.16 0.12 0.10 0.03 0.00 0.01 0.04 0.06 0.06 0.06 0.07 0.12 0.10 0.13 0.08 0.01 0.01 0.01 0.03 0.01 0.00 0.00 0.00 0.01 0.01 0.02 0.00 0.00 0.00 0.00 0.00 0.00 0.01 0.01 0.01 0.01 0.02 0.02 0.02 0.01 0.00 0.00
0.00 0.00 0.00 0.00 0.00 0.00 0.00 0.01 0.01 0.01 0.02 0.04 0.07 0.05 0.03 0.03 0.03 0.04 0.04 0.05 0.03 0.06 0.07 0.06 0.05 0.03 0.11 0.01 0.01 0.00 0.02 0.01 0.00 0.03 0.03 0.01 0.02 0.00 0.00 0.00 0.00 0.00 0.00 0.00 0.00 0.01 0.01 0.01 0.02 0.02 0.02 0.01 0.01 0.01
0.00 0.00 0.00 0.00 0.00 0.00 0.00 0.00 0.00 0.00 0.00 0.00 0.00 0.00 0.00 0.01 0.01 0.01 0.01 0.01 0.01 0.01 0.01 0.01 0.00 0.00 0.01 0.00 0.00 0.00 0.00 0.01 0.01 0.02 0.02 0.01 0.01 0.00 0.00 0.00 0.00 0.00 0.00 0.01 0.01 0.01 0.01 0.01 0.01 0.01 0.02 0.02 0.02 0.02
0.00 0.00 0.00 0.00 0.00 0.00 0.00 0.00 0.00 0.00 0.00 0.00 0.00 0.00 0.00 0.00 0.00 0.01 0.01 0.01 0.02 0.01 0.01 0.01 0.00 0.00 0.00 0.00 0.00 0.00 0.01 0.01 0.01 0.02 0.02 0.01 0.02 0.02 0.02 0.02 0.01 0.02 0.02 0.02 0.03 0.02 0.02 0.02 0.02 0.02 0.02 0.03 0.02 0.02
0.00 0.00 0.00 0.00 0.00 0.00 0.00 0.00 0.00 0.00 0.00 0.00 0.00 0.00 0.00 0.01 0.01 0.01 0.01 0.01 0.01 0.01 0.01 0.00 0.00 0.00 0.00 0.00 0.00 0.01 0.02 0.02 0.01 0.01 0.01 0.02 0.03 0.04 0.04 0.04 0.03 0.03 0.03 0.03 0.03 0.03 0.03 0.03 0.02 0.03 0.04 0.03 0.03 0.03
0.00 0.00 0.00 0.00 0.00 0.00 0.00 0.00 0.00 0.00 0.00 0.00 0.00 0.00 0.00 0.01 0.01 0.01 0.01 0.01 0.02 0.02 0.01 0.00 0.00 0.00 0.01 0.00 0.00 0.00 0.00 0.00 0.00 0.00 0.01 0.01 0.01 0.02 0.03 0.03 0.04 0.04 0.04 0.04 0.04 0.04 0.04 0.04 0.03 0.04 0.04 0.04 0.04 0.03
0.00 0.00 0.00 0.00 0.00 0.00 0.00 0.00 0.00 0.00 0.00 0.00 0.00 0.01 0.01 0.01 0.01 0.01 0.01 0.00 0.01 0.02 0.02 0.03 0.02 0.02 0.02 0.01 0.01 0.01 0.01 0.01 0.02 0.03 0.04 0.04 0.04 0.04 0.04 0.04 0.04 0.04 0.04 0.04 0.04 0.04 0.04 0.04 0.04 0.02 0.02 0.04 0.04 0.04
0.00 0.00 0.00 0.00 0.00 0.00 0.00 0.00 0.00 0.00 0.00 0.00 0.00 0.01 0.00 0.00 0.00 0.00 0.00 0.00 0.00 0.00 0.02 0.02 0.02 0.03 0.03 0.03 0.05 0.04 0.03 0.03 0.04 0.04 0.04 0.04 0.04 0.04 0.04 0.04 0.04 0.03 0.03 0.04 0.04 0.03 0.03 0.04 0.03 0.03 0.03 0.04 0.03 0.03
0.00 0.00 0.00 0.00 0.00 0.00 0.00 0.00 0.00 0.00 0.00 0.00 0.00 0.00 0.00 0.00 0.00 0.00 0.00 0.00 0.00 0.00 0.00 0.00 0.00 0.01 0.02 0.02 0.01 0.02 0.02 0.01 0.02 0.02 0.02 0.02 0.03 0.03 0.03 0.04 0.04 0.03 0.03 0.04 0.03 0.03 0.03 0.03 0.02 0.02 0.01 0.01 0.00 0.00
0.00 0.00 0.00 0.00 0.00 0.00 0.00 0.00 0.00 0.00 0.00 0.00 0.00 0.00 0.00 0.00 0.00 0.00 0.00 0.00 0.00 0.00 0.00 0.00 0.01 0.01 0.01 0.01 0.00 0.00 0.00 0.00 0.00 0.01 0.01 0.01 0.01 0.01 0.02 0.02 0.02 0.02 0.02 0.02 0.02 0.02 0.02 0.01 0.00 0.00 0.00 0.00 0.00 0.00
0.00 0.00 0.00 0.00 0.00 0.00 0.00 0.00 0.00 0.00 0.00 0.00 0.00 0.00 0.00 0.00 0.00 0.00 0.00 0.00 0.00 0.00 0.01 0.01 0.01 0.02 0.01 0.01 0.00 0.00 0.00 0.00 0.00 0.00 0.01 0.01 0.01 0.01 0.01 0.01 0.02 0.02 0.01 0.02 0.01 0.01 0.00 0.00 0.00 0.00 0.00 0.00 0.00 0.00
0.00 0.00 0.00 0.00 0.00 0.00 0.00 0.00 0.00 0.00 0.00 0.00 0.00 0.00 0.00 0.00 0.00 0.00 0.00 0.00 0.00 0.01 0.01 0.01 0.01 0.01 0.00 0.00 0.00 0.00 0.00 0.00 0.00 0.00 0.00 0.00 0.00 0.00 0.01 0.01 0.01 0.00 0.00 0.00 0.00 0.00 0.00 0.00 0.00 0.00 0.00 0.00 0.00 0.00
0.00 0.00 0.00 0.00 0.00 0.00 0.00 0.01 0.00 0.00 0.00 0.00 0.00 0.00 0.00 0.00 0.00 0.00 0.00 0.00 0.01 0.02 0.01 0.01 0.01 0.00 0.00 0.00 0.00 0.00 0.00 0.00 0.00 0.00 0.00 0.00 0.00 0.00 0.00 0.00 0.00 0.00 0.00 0.00 0.00 0.00 0.00 0.00 0.00 0.00 0.00 0.00 0.00 0.00
0.00 0.00 0.00 0.00 0.00 0.00 0.00 0.00 0.00 0.00 0.00 0.00 0.00 0.00 0.00 0.00 0.00 0.00 0.00 0.00 0.01 0.01 0.00 0.00 0.00 0.00 0.00 0.00 0.00 0.00 0.00 0.00 0.00 0.00 0.00 0.00 0.00 0.00 0.00 0.00 0.00 0.00 0.00 0.00 0.00 0.00 0.00 0.00 0.00 0.00 0.00 0.00 0.00 0.00
0.00 0.00 0.00 0.00 0.00 0.00 0.00 0.00 0.00 0.00 0.00 0.00 0.00 0.00 0.00 0.00 0.00 0.00 0.00 0.00 0.01 0.00 0.00 0.00 0.00 0.00 0.00 0.00 0.00 0.00 0.00 0.00 0.00 0.00 0.00 0.00 0.00 0.00 0.00 0.00 0.00 0.00 0.00 0.00 0.00 0.00 0.00 0.00 0.00 0.00 0.00 0.00 0.00 0.00
0.00 0.00 0.00 0.00 0.00 0.00 0.00 0.00 0.00 0.00 0.00 0.00 0.00 0.00 0.00 0.00 0.00 0.00 0.00 0.00 0.00 0.00 0.00 0.00 0.00 0.00 0.00 0.00 0.00 0.00 0.00 0.00 0.00 0.00 0.00 0.00 0.00 0.00 0.00 0.00 0.00 0.00 0.00 0.00 0.00 0.00 0.00 0.00 0.00 0.00 0.00 0.00 0.00 0.00
0.00 0.00 0.00 0.00 0.00 0.00 0.00 0.00 0.00 0.00 0.00 0.00 0.00 0.00 0.00 0.00 0.00 0.00 0.00 0.00 0.00 0.00 0.00 0.00 0.00 0.00 0.00 0.00 0.00 0.00 0.00 0.00 0.00 0.00 0.00 0.00 0.00 0.00 0.00 0.00 0.00 0.00 0.00 0.00 0.00 0.00 0.00 0.00 0.00 0.00 0.00 0.00 0.00 0.00
0.00 0.00 0.00 0.00 0.00 0.00 0.00 0.00 0.00 0.00 0.00 0.00 0.00 0.00 0.00 0.00 0.00 0.00 0.00 0.00 0.00 0.00 0.00 0.00 0.00 0.00 0.00 0.00 0.00 0.00 0.00 0.00 0.00 0.00 0.00 0.00 0.00 0.00 0.00 0.00 0.00 0.00 0.00 0.00 0.00 0.00 0.00 0.00 0.00 0.00 0.00 0.00 0.00 0.00
0.00 0.00 0.00 0.00 0.00 0.00 0.00 0.00 0.00 0.00 0.00 0.00 0.00 0.00 0.00 0.00 0.01 0.00 0.01 0.00 0.00 0.00 0.00 0.00 0.00 0.00 0.00 0.00 0.00 0.00 0.00 0.00 0.00 0.00 0.00 0.00 0.00 0.00 0.00 0.00 0.00 0.00 0.00 0.00 0.00 0.00 0.00 0.00 0.00 0.00 0.00 0.00 0.00 0.00
0.00 0.00 0.00 0.00 0.00 0.00 0.00 0.00 0.00 0.00 0.00 0.00 0.00 0.00 0.00 0.01 0.02 0.01 0.00 0.00 0.00 0.00 0.00 0.00 0.00 0.00 0.00 0.00 0.00 0.00 0.00 0.00 0.00 0.00 0.00 0.00 0.00 0.00 0.00 0.00 0.00 0.00 0.00 0.00 0.00 0.00 0.00 0.00 0.00 0.00 0.00 0.00 0.00 0.00
0.00 0.00 0.00 0.00 0.00 0.00 0.00 0.00 0.00 0.00 0.00 0.00 0.00 0.00 0.00 0.01 0.01 0.00 0.00 0.00 0.00 0.00 0.00 0.00 0.00 0.00 0.00 0.00 0.00 0.00 0.00 0.00 0.00 0.00 0.00 0.00 0.00 0.00 0.00 0.00 0.00 0.00 0.00 0.00 0.00 0.00 0.00 0.00 0.00 0.00 0.00 0.00 0.00 0.00
0.00 0.00 0.00 0.00 0.00 0.00 0.00 0.00 0.00 0.00 0.00 0.00 0.00 0.00 0.00 0.00 0.00 0.00 0.00 0.00 0.00 0.00 0.00 0.00 0.00 0.00 0.00 0.00 0.00 0.00 0.00 0.00 0.00 0.00 0.00 0.00 0.00 0.00 0.00 0.00 0.00 0.00 0.00 0.00 0.00 0.00 0.00 0.00 0.00 0.00 0.00 0.00 0.00 0.00
0.00 0.00 0.00 0.00 0.00 0.00 0.00 0.00 0.00 0.00 0.00 0.00 0.00 0.00 0.00 0.00 0.00 0.00 0.00 0.00 0.00 0.00 0.00 0.00 0.00 0.00 0.00 0.00 0.00 0.00 0.00 0.00 0.00 0.00 0.00 0.00 0.00 0.00 0.00 0.00 0.00 0.00 0.00 0.00 0.00 0.00 0.00 0.00 0.00 0.00 0.00 0.00 0.00 0.00
MSLP
1001.09 1000.32 999.50 998.80 998.27 997.66 997.39 997.17 997.10 997.21 997.67 998.37 999.41 1000.30 1001.27 1002.31 1003.51 1004.64 1005.59 1006.31 1006.89 1007.28 1006.91 1006.29 1006.21 1006.70 1007.55 1008.25 1008.80 1009.69 1010.77 1011.07 1011.31 1011.34 1011.15 1010.70 1010.28 1009.59 1009.00 1008.29 1008.03 1008.11 1008.52 1008.36 1008.39 1007.49 1005.89 1004.36 1004.17 1004.03 1003.96 1003.46 1003.27 1002.44
999.87 998.96 998.07 997.37 996.80 996.47 996.26 995.99 995.87 995.93 996.05 996.86 998.08 999.05 1000.07 1000.92 1002.25 1003.73 1004.51 1005.29 1006.41 1007.36 1007.22 1006.82 1006.11 1005.91 1005.64 1006.18 1007.74 1008.59 1008.33 1008.96 1009.59 1010.10 1010.36 1010.05 1009.88 1009.46 1008.68 1008.13 1007.72 1007.76 1007.16 1006.83 1006.84 1005.93 1004.96 1004.69 1004.56 1004.42 1004.24 1003.77 1003.47 1003.17
998.62 997.77 997.02 996.31 995.93 995.59 995.27 995.02 994.92 994.81 995.19 995.98 997.05 998.10 999.30 1000.22 1001.30 1002.60 1003.61 1004.38 1005.95 1006.84 1007.15 1007.05 1006.10 1005.98 1006.23 1006.50 1006.55 1007.58 1007.99 1007.94 1008.51 1008.46 1009.18 1009.34 1009.16 1008.74 1008.43 1007.96 1007.30 1006.93 1006.57 1006.55 1006.45 1005.47 1004.99 1004.90 1005.07 1005.50 1005.30 1004.78 1004.10 1003.54
997.87 997.00 996.35 995.72 995.11 994.48 994.08 993.87 993.87 994.03 994.35 995.12 996.16 997.43 998.72 999.80 1000.84 1001.83 1002.75 1003.67 1004.88 1005.83 1006.34 1006.54 1006.15 1005.87 1005.67 1006.13 1006.34 1006.57 1006.82 1007.48 1008.08 1008.43 1008.67 1008.83 1008.69 1008.17 1008.03 1007.60 1007.36 1006.87 1006.66 1006.59 1006.33 1005.75 1005.50 1004.96 1005.73 1006.08 1005.72 1005.23 1004.58 1003.80
997.55 996.81 995.99 995.07 994.22 993.47 992.99 992.74 992.81 993.17 993.52 994.11 995.54 996.98 998.34 999.57 1000.33 1001.64 1002.88 1003.79 1004.31 1004.94 1005.64 1005.91 1005.52 1005.16 1005.27 1005.83 1006.18 1006.51 1006.83 1007.61 1008.07 1008.25 1008.55 1008.63 1008.24 1008.13 1008.15 1008.02 1007.57 1007.12 1007.11 1007.35 1007.34 1007.73 1007.62 1007.07 1006.96 1007.08 1006.86 1006.37 1005.98 1005.58
997.49 996.67 995.72 994.69 993.56 992.60 992.00 991.88 991.94 992.47 993.06 993.92 995.30 996.79 998.24 999.64 1000.45 1001.62 1003.31 1004.19 1004.26 1004.46 1005.13 1005.49 1004.92 1004.78 1005.07 1005.58 1005.90 1006.32 1006.73 1007.27 1007.86 1008.00 1008.28 1008.26 1008.03 1008.02 1008.42 1008.45 1008.14 1008.06 1008.24 1008.49 1008.41 1008.41 1008.21 1007.99 1007.81 1007.87 1007.81 1007.57 1007.28 1007.12
997.63 996.81 995.88 994.63 993.37 992.05 990.92 990.64 991.53 992.14 992.73 993.76 995.29 996.91 998.42 999.81 1000.85 1001.72 1002.22 1002.49 1003.87 1004.38 1004.91 1005.42 1005.01 1004.57 1004.86 1005.54 1005.89 1006.25 1006.57 1006.85 1007.38 1007.78 1008.03 1008.14 1008.12 1008.14 1008.91 1009.25 1009.46 1009.51 1009.51 1009.43 1009.26 1008.94 1008.43 1008.45 1008.43 1008.67 1008.60 1008.30 1008.39 1008.57
997.83 997.18 996.28 995.17 993.81 992.34 990.79 990.66 991.61 992.37 993.27 994.10 995.53 997.48 998.98 1000.34 1001.28 1001.75 1001.82 1002.24 1003.55 1004.42 1004.92 1005.49 1005.40 1005.08 1004.73 1005.29 1006.07 1006.47 1006.57 1006.96 1007.17 1007.73 1007.99 1008.21 1008.64 1008.90 1009.71 1010.50 1010.69 1010.81 1010.65 1010.31 1010.47 1010.27 1009.90 1009.27 1009.17 1009.39 1009.57 1008.81 1009.18 1009.02
998.15 997.67 996.99 996.20 995.04 993.89 992.92 992.62 992.89 993.66 994.42 995.35 996.86 998.62 1000.01 1001.07 1001.61 1002.19 1002.66 1003.10 1003.39 1004.28 1004.82 1005.36 1005.23 1005.03 1004.89 1005.32 1005.94 1006.59 1006.50 1006.54 1007.12 1007.50 1007.96 1008.17 1008.99 1010.32 1011.61 1011.95 1012.15 1012.32 1012.25 1011.91 1011.35 1010.64 1010.31 1010.06 1010.28 1010.49 1010.38 1010.13 1010.38 1010.69
998.54 997.99 997.63 997.16 996.36 995.79 995.43 994.96 994.80 995.36 996.13 996.98 998.35 999.65 1000.42 1001.06 1001.71 1002.55 1003.43 1003.82 1004.19 1004.45 1004.83 1005.09 1005.19 1005.14 1005.35 1005.30 1005.77 1006.05 1006.01 1006.63 1007.28 1007.75 1008.10 1008.94 1011.08 1012.64 1013.22 1013.48 1013.54 1013.44 1013.13 1012.58 1011.97 1011.30 1011.27 1011.18 1011.61 1011.58 1011.49 1011.54 1011.37 1011.66
998.91 998.47 997.97 997.68 997.14 996.93 996.86 996.85 997.03 997.15 997.36 998.22 999.15 999.83 1000.90 1001.24 1002.15 1003.22 1004.01 1004.39 1004.68 1004.90 1005.06 1005.05 1005.06 1005.08 1005.18 1005.22 1005.70 1006.08 1006.46 1007.27 1007.99 1008.64 1008.97 1010.57 1012.27 1013.77 1014.36 1014.50 1014.59 1014.41 1014.01 1013.56 1013.27 1012.73 1012.70 1012.76 1012.87 1012.60 1012.66 1012.73 1012.71 1013.03
999.39 999.04 998.62 998.30 997.97 997.81 997.76 997.66 997.78 998.10 998.58 999.03 999.53 1001.08 1002.12 1003.17 1003.47 1003.99 1004.86 1005.10 1005.10 1005.47 1005.40 1005.16 1005.26 1005.20 1005.43 1005.36 1005.92 1006.82 1007.08 1007.86 1008.99 1009.75 1010.72 1012.89 1014.58 1015.22 1015.28 1015.26 1015.23 1015.00 1014.70 1014.44 1014.17 1013.99 1014.05 1013.88 1013.78 1013.72 1013.94 1014.22 1014.23 1014.70
999.93 999.60 999.19 999.00 998.78 998.55 998.13 998.45 998.72 998.97 999.09 999.90 1001.16 1003.30 1004.43 1006.09 1006.66 1006.79 1006.82 1006.76 1006.73 1006.94 1006.66 1005.98 1005.75 1005.76 1005.75 1005.82 1006.64 1007.18 1008.24 1009.85 1010.82 1012.12 1013.93 1015.42 1015.91 1016.03 1016.08 1016.01 1015.96 1015.95 1015.78 1015.58 1015.51 1015.50 1015.37 1015.32 1015.19 1015.23 1015.54 1015.77 1015.83 1016.11
1000.32 1000.03 999.81 999.84 999.73 999.38 999.20 998.74 998.88 999.09 1000.40 1003.06 1004.97 1007.34 1008.38 1009.51 1009.63 1009.66 1009.42 1009.06 1008.75 1008.30 1007.64 1007.05 1006.72 1006.87 1007.29 1007.51 1008.45 1008.98 1010.93 1011.40 1013.09 1014.66 1015.95 1016.94 1017.12 1017.13 1017.16 1017.12 1017.00 1017.01 1016.90 1016.83 1016.87 1016.85 1016.76 1016.67 1016.66 1016.85 1016.91 1017.24 1017.32 1017.62
1000.61 1000.50 1000.24 1000.29 1000.45 1000.39 1000.32 1000.44 1000.44 1000.93 1003.92 1006.45 1007.89 1010.29 1011.29 1011.58 1011.35 1011.14 1010.75 1010.21 1009.69 1009.04 1008.24 1007.61 1007.83 1008.23 1009.09 1009.81 1010.85 1011.49 1012.70 1014.29 1015.56 1016.67 1017.51 1018.10 1018.22 1018.21 1018.12 1018.01 1017.93 1017.89 1017.87 1017.80 1017.89 1017.88 1017.96 1017.98 1017.98 1018.09 1018.53 1018.74 1018.68 1018.84
1000.58 1000.62 1000.84 1000.52 1000.59 1000.84 1000.83 1000.95 1001.75 1003.33 1006.55 1008.89 1011.04 1012.19 1012.47 1012.37 1012.27 1011.87 1011.44 1010.83 1010.30 1009.61 1008.86 1008.83 1009.40 1010.33 1011.51 1012.36 1013.20 1014.56 1015.26 1016.43 1017.54 1018.27 1018.74 1018.98 1019.08 1019.10 1018.99 1018.86 1018.81 1018.77 1018.80 1018.80 1018.86 1019.08 1019.19 1019.28 1019.36 1019.57 1019.80 1019.94 1020.10 1020.25
1000.69 1001.11 1001.13 1000.92 1000.88 1000.97 1001.18 1002.03 1003.99 1006.56 1009.09 1011.12 1013.07 1013.46 1013.77 1013.68 1013.65 1013.22 1012.74 1011.97 1011.33 1010.51 1010.52 1010.84 1011.73 1013.13 1013.69 1014.56 1016.01 1016.89 1017.65 1018.39 1018.94 1019.52 1019.86 1020.02 1020.08 1020.06 1020.00 1019.97 1020.01 1019.94 1019.88 1019.91 1019.97 1020.19 1020.34 1020.48 1020.57 1020.62 1020.82 1021.40 1021.48 1021.77
1001.09 1001.14 1000.87 1000.66 1000.84 1001.32 1002.39 1003.78 1006.28 1009.05 1011.70 1013.17 1013.70 1014.26 1014.29 1014.40 1014.33 1013.86 1013.31 1012.44 1011.79 1011.49 1011.95 1012.84 1013.86 1014.99 1015.99 1016.83 1017.76 1018.50 1019.11 1019.79 1020.29 1020.69 1020.98 1021.11 1021.13 1021.17 1021.15 1021.16 1021.19 1021.13 1021.11 1021.15 1021.25 1021.42 1021.55 1021.66 1021.72 1022.00 1022.36 1022.74 1022.97 1023.48
1001.16 1001.11 1000.75 1000.54 1000.76 1002.04 1004.54 1006.79 1008.06 1011.04 1013.13 1013.71 1014.22 1014.36 1014.56 1014.73 1014.59 1014.38 1013.74 1013.03 1012.67 1012.59 1013.16 1014.63 1016.16 1017.50 1018.40 1018.80 1019.20 1019.72 1020.25 1020.68 1021.26 1021.73 1022.05 1022.24 1022.24 1022.24 1022.25 1022.25 1022.26 1022.26 1022.25 1022.33 1022.42 1022.67 1022.98 1023.14 1023.27 1023.38 1023.73 1024.04 1024.31 1024.73
1001.19 1001.16 1000.93 1000.88 1001.04 1003.18 1006.16 1008.29 1009.09 1011.14 1013.12 1013.96 1014.17 1014.45 1014.75 1014.98 1014.89 1014.74 1014.44 1013.96 1013.81 1014.39 1016.14 1017.80 1019.31 1019.99 1020.10 1020.25 1020.39 1020.72 1021.11 1021.48 1021.81 1022.24 1022.75 1023.02 1023.12 1023.11 1023.16 1023.13 1023.20 1023.27 1023.35 1023.53 1023.69 1023.81 1024.09 1024.42 1024.78 1025.08 1025.29 1025.50 1025.71 1026.22
1001.38 1001.54 1001.43 1001.44 1002.79 1004.52 1007.20 1008.96 1010.37 1011.64 1012.93 1013.52 1014.02 1014.44 1015.02 1015.28 1015.33 1015.37 1015.30 1015.27 1015.62 1017.75 1019.51 1020.52 1020.93 1021.21 1021.31 1021.38 1021.47 1021.60 1021.87 1021.97 1022.31 1022.59 1023.14 1023.67 1023.96 1023.98 1024.07 1024.13 1024.17 1024.22 1024.40 1024.71 1024.96 1025.42 1025.64 1026.01 1026.42 1026.65 1026.78 1027.09 1027.34 1027.54
1001.97 1001.77 1002.30 1002.50 1004.44 1006.41 1008.26 1009.35 1010.21 1011.37 1012.28 1013.40 1014.01 1014.54 1015.49 1016.15 1016.38 1016.65 1016.82 1017.47 1019.61 1020.95 1021.16 1021.57 1021.88 1022.02 1022.22 1022.48 1022.70 1022.77 1023.01 1023.08 1023.38 1023.72 1024.08 1024.38 1024.71 1024.93 1025.14 1025.24 1025.25 1025.53 1025.82 1026.11 1026.34 1026.71 1027.05 1027.38 1027.62 1027.82 1028.01 1028.38 1028.48 1028.65
1002.17 1002.43 1003.53 1004.42 1006.43 1008.24 1010.28 1010.19 1010.67 1011.59 1012.54 1013.68 1014.27 1015.39 1016.43 1017.05 1017.50 1017.63 1019.24 1020.82 1021.80 1022.26 1022.34 1022.50 1022.75 1022.96 1023.14 1023.46 1023.56 1023.83 1023.99 1024.13 1024.49 1024.90 1025.24 1025.55 1025.93 1026.18 1026.28 1026.46 1026.59 1026.68 1026.97 1027.44 1027.62 1027.87 1028.22 1028.58 1028.75 1028.89 1029.16 1029.41 1029.46 1029.78
1002.99 1004.79 1006.19 1007.43 1008.18 1010.46 1010.92 1011.39 1011.64 1012.51 1013.34 1014.40 1015.52 1016.89 1017.67 1018.21 1018.70 1019.70 1021.41 1022.32 1022.73 1022.87 1023.05 1023.33 1023.53 1023.79 1024.12 1024.41 1024.72 1025.00 1025.20 1025.35 1025.63 1026.05 1026.32 1026.45 1026.79 1027.21 1027.35 1027.52 1027.70 1027.89 1028.09 1028.41 1028.66 1028.96 1029.28 1029.51 1029.60 1029.74 1029.92 1030.09 1030.31 1030.44
1004.96 1008.34 1008.80 1009.75 1010.16 1011.02 1012.42 1013.32 1013.72 1014.16 1015.58 1016.16 1017.24 1018.41 1018.94 1019.16 1020.35 1021.57 1022.48 1023.09 1023.37 1023.77 1024.04 1024.07 1024.20 1024.45 1024.96 1025.56 1025.91 1026.11 1026.17 1026.15 1026.41 1026.80 1027.25 1027.32 1027.62 1027.92 1028.17 1028.42 1028.64 1028.82 1029.08 1029.18 1029.61 1029.80 1030.11 1030.28 1030.39 1030.46 1030.60 1030.63 1030.67 1030.91
1008.46 1010.37 1010.45 1011.14 1011.84 1012.27 1013.79 1015.01 1015.50 1016.17 1016.66 1017.88 1018.96 1019.74 1020.11 1020.73 1021.89 1022.97 1023.10 1023.46 1023.98 1024.32 1024.72 1024.78 1024.76 1025.16 1025.63 1025.94 1026.35 1026.73 1026.97 1026.94 1027.07 1027.42 1028.00 1028.01 1028.14 1028.30 1028.67 1028.88 1029.07 1029.41 1029.59 1029.66 1029.95 1030.21 1030.43 1030.64 1030.72 1030.82 1030.98 1031.10 1031.15 1031.31
1010.87 1012.00 1012.42 1013.06 1013.22 1013.91 1015.53 1016.30 1016.74 1017.21 1018.26 1019.16 1020.00 1020.75 1021.46 1022.77 1023.58 1023.69 1023.71 1024.02 1024.23 1024.67 1024.88 1025.05 1025.00 1025.33 1026.05 1026.74 1027.19 1027.48 1027.58 1027.52 1027.57 1028.09 1028.50 1028.66 1028.78 1028.84 1029.04 1029.26 1029.49 1029.83 1029.88 1030.09 1030.27 1030.26 1030.41 1030.63 1030.83 1031.01 1031.14 1031.26 1031.36 1031.51
1012.61 1013.49 1014.32 1015.73 1015.78 1016.40 1017.44 1018.29 1018.83 1019.39 1019.63 1019.96 1020.60 1022.17 1022.99 1023.44 1024.00 1024.01 1024.18 1024.56 1024.80 1025.12 1025.51 1025.86 1026.00 1026.38 1026.93 1027.50 1027.81 1028.09 1028.40 1028.49 1028.59 1028.76 1028.93 1029.18 1029.44 1029.59 1029.68 1029.83 1030.02 1030.19 1030.39 1030.49 1030.58 1030.42 1030.45 1030.55 1030.75 1031.06 1031.24 1031.26 1031.26 1031.59
1014.36 1015.27 1015.88 1017.93 1018.18 1019.08 1020.20 1020.66 1020.94 1020.85 1020.91 1021.07 1021.87 1022.96 1023.54 1024.04 1024.59 1024.60 1024.93 1025.14 1025.33 1025.63 1026.28 1027.02 1027.83 1027.86 1028.13 1028.50 1028.71 1028.70 1028.87 1028.96 1029.13 1029.46 1029.60 1029.85 1030.15 1030.16 1030.26 1030.37 1030.51 1030.51 1030.64 1030.79 1030.56 1030.57 1030.43 1030.42 1030.73 1031.31 1031.44 1031.35 1031.39 1031.55
1015.96 1016.38 1017.73 1019.34 1020.60 1021.77 1022.22 1022.25 1022.29 1022.28 1021.93 1022.07 1022.24 1023.37 1024.17 1025.02 1025.34 1025.42 1025.67 1025.99 1026.35 1026.91 1027.45 1027.67 1028.18 1028.41 1028.91 1029.16 1029.45 1029.64 1029.71 1029.78 1029.79 1029.98 1030.01 1030.14 1030.25 1030.41 1030.57 1030.71 1030.86 1030.97 1031.17 1030.90 1030.73 1030.53 1030.59 1030.58 1030.74 1031.43 1031.61 1031.45 1031.38 1031.33
1016.52 1017.40 1018.95 1020.57 1022.04 1022.84 1023.04 1023.17 1022.84 1022.82 1023.18 1023.46 1023.90 1024.80 1025.67 1026.11 1026.06 1026.45 1026.72 1027.25 1027.45 1027.72 1028.10 1028.70 1029.02 1029.21 1029.41 1029.77 1029.78 1029.77 1029.83 1029.97 1030.00 1030.07 1030.20 1030.32 1030.51 1030.75 1030.93 1031.09 1031.33 1031.40 1031.21 1031.06 1031.00 1030.99 1031.05 1031.08 1031.11 1031.28 1031.37 1031.36 1031.34 1031.38
1017.65 1018.58 1019.54 1021.41 1022.70 1022.89 1023.22 1023.84 1023.94 1024.25 1024.98 1025.19 1025.91 1026.13 1026.67 1026.93 1027.22 1027.31 1027.70 1028.00 1028.33 1028.49 1028.66 1028.89 1029.21 1029.29 1029.46 1029.62 1029.70 1029.76 1029.76 1029.97 1030.22 1030.43 1030.56 1030.66 1030.86 1031.31 1031.39 1031.36 1031.65 1031.57 1031.33 1031.31 1031.32 1031.30 1031.28 1031.21 1031.26 1031.29 1031.34 1031.33 1031.33 1031.34
1018.28 1018.69 1019.43 1020.67 1021.96 1022.56 1023.05 1023.42 1024.27 1025.20 1025.54 1026.35 1026.82 1027.17 1027.40 1027.48 1027.69 1027.81 1028.12 1028.26 1028.27 1028.16 1028.43 1028.84 1029.22 1029.43 1029.62 1029.85 1029.83 1029.83 1030.07 1030.47 1030.88 1030.39 1031.06 1031.10 1031.37 1031.35 1031.54 1031.67 1031.70 1031.62 1031.46 1031.50 1031.53 1031.50 1031.41 1031.36 1031.33 1031.29 1031.28 1031.30 1031.31 1031.27
Thickness
5363 5368 5373 5375 5375 5377 5376 5377 5377 5377 5377 5374 5374 5374 5372 5368 5362 5357 5359 5363 5368 5371 5390 5407 5415 5415 5415 5414 5415 5415 5407 5407 5413 5419 5427 5434 5438 5459 5468 5480 5484 5488 5486 5487 5485 5490 5503 5526 5527 5528 5534 5543 5544 5554
5368 5373 5377 5378 5377 5374 5372 5372 5374 5375 5377 5376 5375 5377 5377 5376 5371 5365 5367 5371 5371 5372 5383 5393 5408 5417 5429 5429 5419 5416 5429 5423 5425 5425 5425 5437 5440 5439 5464 5473 5473 5485 5494 5502 5505 5513 5519 5519 5521 5525 5531 5537 5540 5540
5373 5377 5378 5377 5373 5368 5366 5364 5366 5371 5373 5374 5374 5377 5377 5378 5376 5373 5372 5377 5370 5367 5378 5385 5401 5411 5415 5419 5425 5416 5421 5430 5425 5433 5428 5434 5442 5447 5455 5465 5480 5483 5489 5496 5496 5513 5515 5515 5514 5508 5509 5516 5526 5531
5375 5377 5376 5373 5371 5368 5366 5364 5364 5367 5372 5373 5373 5375 5376 5377 5377 5373 5377 5379 5377 5378 5384 5386 5395 5405 5414 5415 5420 5423 5427 5424 5424 5426 5428 5428 5444 5449 5454 5467 5473 5483 5486 5493 5496 5506 5504 5515 5499 5494 5498 5508 5515 5523
5374 5374 5373 5372 5370 5369 5365 5364 5365 5366 5372 5375 5372 5372 5373 5373 5375 5374 5374 5374 5378 5383 5381 5386 5399 5407 5411 5412 5416 5418 5422 5420 5421 5426 5422 5433 5434 5444 5442 5450 5465 5471 5479 5479 5491 5466 5468 5480 5483 5479 5481 5490 5495 5497
5371 5372 5371 5370 5370 5370 5367 5365 5366 5366 5371 5374 5372 5370 5368 5366 5371 5371 5361 5363 5373 5380 5382 5386 5398 5404 5407 5408 5413 5416 5417 5419 5416 5419 5419 5425 5431 5440 5439 5448 5450 5453 5451 5448 5454 5454 5457 5462 5467 5463 5464 5467 5474 5474
5370 5370 5367 5368 5367 5367 5368 5368 5366 5366 5372 5375 5372 5368 5365 5364 5367 5369 5373 5379 5373 5376 5376 5379 5394 5403 5404 5404 5406 5411 5413 5416 5417 5416 5418 5425 5427 5433 5428 5433 5429 5429 5427 5430 5436 5439 5452 5451 5450 5446 5447 5451 5453 5452
5368 5367 5364 5364 5363 5358 5360 5365 5366 5366 5370 5375 5373 5366 5362 5361 5362 5366 5372 5376 5372 5371 5375 5370 5378 5395 5404 5402 5399 5401 5404 5406 5409 5408 5411 5417 5419 5423 5426 5408 5409 5407 5410 5419 5412 5416 5420 5431 5432 5426 5425 5434 5435 5436
5367 5365 5362 5360 5359 5357 5357 5361 5363 5364 5367 5369 5365 5359 5358 5357 5360 5361 5365 5370 5374 5375 5374 5373 5380 5396 5395 5396 5396 5393 5401 5407 5405 5407 5409 5418 5415 5408 5386 5386 5386 5385 5386 5390 5397 5406 5411 5413 5411 5405 5408 5411 5413 5411
5367 5367 5363 5361 5361 5358 5356 5358 5362 5364 5363 5363 5361 5356 5355 5360 5362 5362 5360 5364 5368 5372 5373 5378 5377 5393 5389 5391 5393 5399 5402 5407 5410 5407 5404 5400 5374 5363 5362 5364 5366 5367 5371 5379 5384 5394 5391 5393 5390 5387 5389 5391 5395 5396
5367 5367 5367 5366 5367 5365 5361 5360 5359 5361 5365 5363 5362 5366 5361 5364 5363 5361 5363 5366 5371 5376 5371 5378 5380 5388 5383 5397 5395 5392 5404 5397 5398 5400 5406 5385 5367 5350 5348 5348 5349 5351 5355 5361 5364 5370 5369 5369 5370 5373 5373 5374 5376 5375
5366 5367 5368 5368 5370 5369 5368 5368 5367 5369 5369 5370 5371 5362 5358 5354 5361 5370 5368 5369 5378 5380 5375 5386 5383 5384 5383 5390 5398 5392 5397 5395 5401 5376 5372 5348 5339 5334 5336 5336 5336 5338 5341 5344 5346 5349 5349 5352 5354 5356 5354 5353 5355 5352
5364 5366 5368 5369 5370 5371 5374 5373 5371 5371 5373 5370 5363 5351 5356 5336 5330 5337 5355 5364 5367 5358 5362 5374 5385 5384 5387 5393 5393 5398 5386 5375 5360 5346 5328 5322 5323 5323 5322 5323 5322 5321 5323 5324 5325 5326 5328 5330 5333 5335 5334 5333 5333 5333
5362 5366 5368 5367 5367 5370 5371 5376 5376 5377 5372 5350 5338 5313 5306 5302 5318 5324 5331 5341 5346 5350 5356 5365 5382 5380 5374 5376 5367 5378 5349 5354 5337 5323 5313 5305 5305 5307 5307 5307 5306 5303 5302 5303 5303 5305 5308 5311 5313 5313 5314 5312 5312 5311
5360 5364 5368 5369 5367 5367 5369 5369 5371 5369 5349 5328 5323 5301 5306 5307 5314 5318 5323 5334 5341 5346 5358 5375 5367 5367 5356 5349 5344 5349 5337 5318 5312 5304 5298 5293 5293 5293 5293 5294 5294 5292 5289 5289 5288 5289 5290 5293 5295 5295 5293 5292 5293 5292
5359 5363 5365 5370 5371 5370 5371 5372 5368 5359 5336 5319 5303 5304 5303 5310 5315 5316 5321 5329 5335 5340 5356 5359 5358 5349 5338 5330 5325 5311 5317 5302 5293 5286 5284 5283 5281 5281 5281 5281 5280 5280 5278 5276 5274 5274 5275 5276 5276 5275 5274 5273 5272 5271
5357 5356 5362 5368 5372 5374 5374 5369 5357 5339 5322 5310 5295 5293 5290 5298 5301 5306 5310 5321 5328 5344 5346 5343 5334 5326 5327 5317 5299 5292 5289 5284 5280 5274 5271 5269 5268 5267 5266 5265 5263 5263 5262 5262 5264 5263 5262 5260 5259 5259 5257 5251 5250 5247
5352 5356 5364 5370 5373 5373 5367 5358 5343 5325 5301 5292 5292 5292 5294 5293 5297 5301 5309 5320 5331 5339 5334 5326 5320 5308 5302 5302 5289 5277 5272 5266 5263 5259 5256 5255 5253 5251 5249 5247 5246 5247 5248 5247 5247 5246 5245 5243 5242 5239 5234 5230 5227 5222
5351 5356 5365 5372 5375 5367 5353 5338 5331 5303 5292 5289 5290 5293 5293 5293 5299 5306 5314 5321 5326 5328 5324 5311 5297 5289 5280 5277 5274 5269 5264 5261 5254 5249 5246 5243 5242 5241 5239 5237 5236 5234 5233 5232 5231 5227 5223 5221 5220 5218 5214 5210 5207 5203
5351 5356 5365 5371 5375 5361 5344 5329 5327 5315 5297 5295 5299 5300 5299 5301 5306 5303 5311 5319 5318 5311 5292 5278 5266 5263 5266 5265 5264 5261 5258 5255 5252 5246 5240 5236 5234 5231 5229 5228 5225 5222 5220 5216 5213 5211 5207 5202 5197 5193 5190 5187 5184 5179
5351 5355 5362 5368 5363 5355 5339 5329 5320 5314 5306 5306 5308 5308 5304 5304 5306 5304 5307 5309 5302 5287 5273 5266 5263 5261 5260 5258 5258 5256 5252 5251 5246 5243 5234 5227 5221 5219 5215 5211 5207 5204 5200 5195 5190 5183 5180 5175 5170 5166 5163 5159 5156 5153
5349 5357 5359 5364 5355 5346 5336 5331 5329 5321 5320 5315 5312 5312 5300 5291 5294 5296 5299 5290 5274 5264 5265 5261 5258 5256 5252 5247 5243 5241 5236 5234 5228 5223 5216 5212 5206 5200 5193 5187 5183 5176 5171 5166 5162 5157 5152 5148 5144 5140 5138 5134 5131 5129
5359 5362 5357 5358 5344 5334 5330 5332 5333 5333 5319 5316 5318 5310 5299 5293 5295 5297 5279 5270 5261 5257 5256 5253 5250 5246 5242 5237 5233 5227 5222 5217 5210 5202 5195 5186 5178 5170 5164 5157 5153 5149 5145 5139 5137 5134 5129 5123 5120 5120 5117 5115 5112 5108
5364 5348 5338 5335 5343 5317 5319 5317 5335 5329 5323 5320 5314 5300 5292 5287 5287 5276 5265 5258 5256 5253 5250 5245 5241 5236 5230 5224 5217 5211 5205 5199 5191 5183 5176 5169 5158 5148 5142 5136 5131 5126 5123 5119 5116 5113 5109 5107 5103 5104 5101 5098 5095 5094
5354 5330 5333 5322 5328 5331 5315 5304 5310 5315 5299 5297 5296 5283 5278 5287 5269 5255 5251 5252 5248 5242 5235 5235 5232 5227 5218 5208 5202 5197 5190 5186 5178 5167 5155 5147 5138 5131 5125 5118 5112 5107 5103 5102 5097 5096 5092 5090 5090 5091 5089 5088 5088 5084
5330 5320 5326 5321 5314 5330 5312 5303 5293 5294 5291 5283 5277 5272 5267 5262 5253 5242 5258 5244 5237 5232 5222 5222 5221 5216 5208 5202 5194 5185 5176 5169 5161 5150 5137 5131 5125 5119 5112 5107 5102 5097 5091 5090 5088 5087 5085 5082 5082 5081 5079 5076 5071 5074
5314 5309 5323 5319 5327 5322 5299 5296 5304 5295 5280 5280 5271 5256 5255 5242 5229 5246 5246 5238 5237 5227 5223 5218 5216 5210 5199 5188 5178 5169 5161 5153 5146 5134 5124 5117 5112 5108 5103 5099 5094 5089 5085 5083 5081 5081 5081 5077 5075 5074 5073 5070 5069 5068
5308 5308 5305 5285 5290 5296 5275 5269 5267 5265 5283 5285 5270 5238 5240 5237 5248 5245 5238 5229 5224 5220 5213 5206 5201 5195 5186 5174 5164 5154 5144 5135 5127 5119 5113 5107 5101 5097 5094 5090 5086 5083 5081 5078 5077 5075 5074 5074 5072 5070 5069 5070 5068 5063
5294 5290 5292 5264 5273 5271 5268 5258 5269 5278 5275 5264 5245 5242 5247 5243 5232 5232 5226 5221 5216 5213 5203 5193 5180 5175 5167 5158 5148 5141 5132 5124 5117 5104 5098 5097 5092 5092 5086 5084 5082 5080 5078 5077 5075 5074 5073 5071 5069 5067 5066 5064 5062 5058
5286 5289 5273 5251 5255 5257 5247 5255 5254 5251 5258 5258 5261 5253 5240 5229 5224 5219 5215 5211 5205 5195 5184 5179 5168 5165 5156 5149 5137 5127 5117 5108 5103 5100 5096 5092 5090 5085 5081 5080 5078 5075 5073 5072 5072 5071 5068 5067 5064 5062 5060 5058 5056 5054
5286 5277 5266 5258 5249 5250 5244 5234 5234 5242 5236 5235 5230 5227 5224 5218 5214 5206 5201 5192 5186 5178 5174 5165 5156 5146 5142 5132 5126 5117 5111 5102 5094 5090 5087 5084 5080 5078 5076 5074 5071 5070 5068 5067 5066 5064 5062 5060 5058 5056 5055 5054 5051 5046
5262 5256 5263 5253 5245 5240 5236 5226 5223 5223 5214 5221 5211 5200 5203 5203 5195 5197 5189 5182 5175 5170 5162 5155 5152 5148 5135 5126 5117 5109 5103 5098 5091 5086 5082 5078 5074 5071 5069 5067 5065 5063 5062 5060 5058 5057 5055 5055 5053 5051 5049 5047 5044 5040
5260 5256 5256 5253 5245 5240 5235 5238 5233 5222 5210 5206 5200 5188 5185 5193 5191 5187 5178 5173 5171 5167 5159 5151 5143 5135 5128 5119 5111 5103 5097 5092 5086 5082 5077 5073 5070 5066 5063 5061 5059 5057 5055 5054 5052 5050 5049 5048 5047 5044 5042 5038 5036 5033